Starlink 5769

operational
NORAD ID: 55585 Int'l Des: 2023-020 Owner: SPXS Country: US Constellation: starlink
LEOCIRCULAR

Starlink 5769について

説明を読み込み中...

リアルタイム位置

3D地球を読み込み中...

次回通過

高度履歴

Altitude vs Time

uPlot chart will show altitude changes over time

軌道要素

1 55585U 23020S 26035.44379301 -.00003099 00000-0 -21434-3 0 9992
2 55585 43.0008 172.7223 0001514 282.0954 77.9718 15.02548451164061
Epoch: Feb 4, 2026 • Age: 20 hours

現在のステータス

高度 559.3 km
速度 7.59 km/s
衛星直下点 20.84°N, 92.03°E
打ち上げ日 Feb 12, 2023
運用期間 2.9 years
タイプ internet

技術仕様

分類 Payload
質量 305.00 kg
乾燥質量 290.00 kg
総質量 305.00 kg
長さ 0.20 m
直径 2.80 m
スパン 9.00 m
形状 Box + pan
製造者 SPXS
バスタイプ Starlink
フェーズステータス In Orbit
所有者/国 SPXS/US

大規模コンステレーション

Loading constellations...